Location: Unspecified
(45.3712°N, 0.6436°E)
Time: 01:30:55
(UTC+02:00)

ISS - Pass Details

Date: 19 July 2018
Orbit: 402 x 408 km, 51.6° (Epoch: 22 July)

Event Time Altitude Azimuth Distance (km) Brightness Sun altitude
Rises 22:58:39 0° 214° (SSW) 2,307 -0.1 -11.7°
Reaches altitude 10° 23:00:52 10° 203° (SSW) 1,453 -1.3 -11.9°
Maximum altitude 23:03:45 30° 140° (SE) 759 -3.0 -12.3°
Drops below altitude 10° 23:06:40 10° 77° (ENE) 1,464 -1.3 -12.6°
Sets 23:08:54 0° 67° (ENE) 2,329 -0.2 -12.9°
